This is the latest recevied weather packets stored in our database for station/object PD0SBH-13. If no packets are shown the sender has not sent any weather packets the latest 10 day(s).
| Time | Temp. | Humidity | Pressure | Rain* | Wind** | Luminosity | Snow |
|---|---|---|---|---|---|---|---|
| 1777047922 | 22.78° C | 34% | 1018 hPa | 0 mm | - | - | - |
| 1777047317 | 23.33° C | 34% | 1018.6 hPa | 0 mm | - | - | - |
| 1777046722 | 23.33° C | 33% | 1018.5 hPa | 0 mm | - | - | - |
| 1777046117 | 23.33° C | 32% | 1018.2 hPa | 0 mm | - | - | - |
| 1777045521 | 23.89° C | 31% | 1018.2 hPa | 0 mm | - | - | - |
| 1777044918 | 23.89° C | 32% | 1018.1 hPa | 0 mm | - | - | - |
| 1777044324 | 24.44° C | 33% | 1018.1 hPa | 0 mm | - | - | - |
| 1777043719 | 24.44° C | 34% | 1018.3 hPa | 0 mm | - | - | - |
| 1777043123 | 24.44° C | 34% | 1018.3 hPa | 0 mm | - | - | - |
| 1777042518 | 24.44° C | 33% | 1018.4 hPa | 0 mm | - | - | - |
| 1777041923 | 24.44° C | 32% | 1018.5 hPa | 0 mm | - | - | - |
| 1777041318 | 24.44° C | 32% | 1018.7 hPa | 0 mm | - | - | - |
| 1777040723 | 23.89° C | 32% | 1018.8 hPa | 0 mm | - | - | - |
| 1777040116 | 24.44° C | 33% | 1019.1 hPa | 0 mm | - | - | - |
| 1777039521 | 23.89° C | 34% | 1019.1 hPa | 0 mm | - | - | - |
| 1777038926 | 23.89° C | 34% | 1019 hPa | 0 mm | - | - | - |
| 1777038320 | 23.89° C | 35% | 1019.2 hPa | 0 mm | - | - | - |
| 1777037726 | 23.89° C | 36% | 1019.9 hPa | 0 mm | - | - | - |
| 1777037120 | 23.89° C | 37% | 1019.8 hPa | 0 mm | - | - | - |
| 1777036524 | 23.33° C | 37% | 1019.4 hPa | 0 mm | - | - | - |
| 1777035919 | 23.33° C | 39% | 1019.4 hPa | 0 mm | - | - | - |
| 1777035322 | 22.78° C | 38% | 1019.7 hPa | 0 mm | - | - | - |
| 1777034716 | 22.78° C | 39% | 1019.7 hPa | 0 mm | - | - | - |
| 1777034121 | 22.22° C | 40% | 1019.6 hPa | 0 mm | - | - | - |
| 1777033516 | 21.67° C | 41% | 1019.6 hPa | 0 mm | - | - | - |
* Rain latest hour (hover to see other rain measurements)
** Current wind speed in m/s (hover to see current wind gust speed)